一网星座-0284星 (ONEWEB-0284 )

导读

ONEWEB-0284是英国OneWeb卫星互联网星座的成员,于2021年7月1日发射入轨。OneWeb计划构建由超600颗低轨道卫星组成的全球高速通信网络,旨在提供覆盖全球的宽带互联网服务,可在地面基础设施受损时保障通信连通,服务政府、企业客户,填补偏远地区网络覆盖空白,推动全球互联基础设施建设。

Basic Information
目录编号:
49002
目录名称:
ONEWEB-0284
国际标识:
2021-060AM
轨道中心:
EARTH
卫星名称:
一网星座-0284星
卫星全名:
一网星座-0284星 (ONEWEB-0284 )
卫星状态:
在轨 (已飞行1853 天)
发射日期:
2021-07-01 UTC
国别 :
英国 (GB)
星等 :
--
Orbit Information
数据来源 国际轨道数据 AOE轨道数据
星历时间 2026-07-27T20:13:33+0800
12小时前
查看轨道信息
2026-07-25T18:00:00+0800
2天前
查看轨道信息
半长轴 7575.892km 7575.889km
偏心率 0.0002297 0.0001976
轨道倾角 87.908° 87.906°
近地点辐角 85.401° 89.274°
升交点赤经 220.763° 221.178°
平近点角 274.739° 77.499°
近地点 1196.014km 1196.255km
远地点 1199.496km 1199.249km
周期 109.373分钟 109.373分钟
每日圈数 13.165948 13.165957
Detailed Information
平衡模式:
三轴稳定
覆盖范围:
全球
运营商:
一网卫星公司
运营商所在国:
英国
制造商(研发单位):
一网卫星公司
制造商所在国:
英国
使用方式:
暂无
Satellite Introduction
OneWeb卫星网络由648颗重约125公斤的微型卫星组成,运行在1200公里的轨道上。 每颗卫星都能够提供至少每秒8千兆位的吞吐量,以使用其高吞吐量的Ku频段有效载荷为家庭和移动平台提供互联网接入。该卫星仍在工作。
2D Orbit Map
3D Orbit Map
Orbit Altitude Analysis Chart
Orbit Inclination Analysis Chart
Orbit Comprehensive Analysis Chart
View Comprehensive Chart